Погода в Магдагачи

Погода в Магдагачи : погода сейчас, прогноз погоды и архив. Всё, что Вы хотите узнать о погоде в Магдагачи!

Хотите узнать прогноз погоды в Магдагачи? Тогда Вам сюда: Погода в Магдагачи

Поиск расширенной информации на нашем сайте:

Другие новости

Новости СМИ2

Главная страница сайта

Новости сайта

03.07.2017

Напоминаем, что на нашем специализированном сайте Метеоцентр.Азия вы можете получить высокодетализированные автоматические прогнозы погоды по пунктам России, СНГ и мира в авиационном формате (включающие направление и скорость ветра, видимость, явления погоды, количество и форму облачности, нижнюю и верхнюю границу облачности).


Погода в Магдагачи - сегодня

Время (UTC), дата Ветер
(°,м/с) 
Видим.   Явления Облачность Т
(°С)
Тd
(°С)
f(%) Тe
(°С)
Pmin
(гПа)
dP
(гПа)
Po
(мм)
O2
(г/м3)
Тmin Tmax R s Состояние
почвы
18 20.02.18 тихо ()   20000 м    5/0 верхняя 
[Ci fib]
-23.7 -29.4 59 -24  1017.2  -1.3  726  322           
21 20.02.18 тихо ()   20000 м    5/0 верхняя 
[Ci fib]
-25.7 -29.6 70 -26  1017.2  -0.4  726  325           
00 21.02.18 160 (Ю) 4000 м  дымка  ясно 
-27.5 -30 79 -31  1017  -0.5  725  327  -27.9      равномерный
сухой снег
100% 
03 21.02.18 тихо ()   20000 м    ясно 
-15.2 -23.3 50 -15  1014  -0.5  725  311           
06 21.02.18 020 (С) 20000 м    ясно 
-13.2 -22.6 45 -15  1012.3  -1.3  724  308           
09 21.02.18 050 (СВ) 20000 м    ясно 
-15.5 -23.6 50 -18  1012.1  -0.5  724  311           
12 21.02.18 320 (СЗ) 20000 м    ясно 
-19 -26.8 50 -22  1015.1  2.1  725  316    -12.9       
15 21.02.18 290 (З) 20000 м    ясно 
-24.9 -29.7 64 -28  1016.1  -0.1  725  323           
18 21.02.18 тихо ()   20000 м    ясно 
-27.3 -30.5 74 -27  1016.9  0.2  725  326           
21 21.02.18 340 (С) 20000 м    ясно 
-27.4 -30.5 75 -31  1016.9  725  327           
03 22.02.18 050 (СВ) 20000 м    ясно 
-17.6 -23.5 60 -23  1015.5  -0.4  726  314           
06 22.02.18 050 (СВ) 20000 м    3/0 средняя 
[Ac trans]
-13.9 -23.3 45 -18  1014.3  -0.4  725  309           
09 22.02.18 290 (З) 20000 м    4/0 средняя 
[Ac trans]
-16.7 -24.7 50 -19  1016.1  1.2  726  313           
12 22.02.18 290 (З) 20000 м    ясно 
-20.6 -26.4 60 -23  1018.4  1.5  727  319    -13.6       
15 22.02.18 290 (З) 20000 м    ясно 
-23.5 -28.3 65 -27  1019.9  1.1  728  323           
18 22.02.18 290 (З) 20000 м    ясно 
-27.3 -31.2 69 -31  1021.3  0.4  728  328           
21 22.02.18 тихо ()   20000 м    ясно 
-29.1 -32.2 74 -29  1022.8  1.1  729  331           
03 23.02.18 тихо ()   20000 м    ясно 
-17.3 -25.3 50 -17  1023.9  1.8  732  316           
06 23.02.18 230 (ЮЗ) 20000 м    ясно 
-14.6 -23.9 45 -17  1023.8  0.3  732  313           
09 23.02.18 270 (З) 20000 м    ясно 
-16.1 -25.3 45 -18  1025.9  1.8  733  316           
12 23.02.18 тихо ()   20000 м    ясно 
-24.9 -30.5 60 -25  1028.9  1.2  734  327    -14.2       
15 23.02.18 тихо ()   20000 м    ясно 
-28.1 -32.7 65 -28  1030.5  0.9  735  332           
18 23.02.18 тихо ()   20000 м    ясно 
-29.4 -33.1 70 -29  1030.9  0.2  735  334           
21 23.02.18 тихо ()   20000 м    ясно 
-30.1 -33.2 74 -30  1031.1  735  335           
03 24.02.18 360 (С) 20000 м    ясно 
-16.4 -24.4 50 -19  1029  736  317           
Время (UTC), дата Ветер
(°,м/с) 
Видим.   Явления Облачность Т
(°С)
Тd
(°С)
f(%) Тe
(°С)
Pmin
(гПа)
dP
(гПа)
Po
(мм)
O2
(г/м3)
Тmin Tmax R s Состояние
почвы

Для получения пояснительной информации подведите курсор к названию столбца.

ПОГОДА в Магдагачи - архив

Всё, что Вы хотите узнать о погоде в Магдагачи - удобно и подробно!

Выберите нужную дату (начиная с 1 января 2015* года) и нажмите кнопку "Найти".
Будут отображены архивные сводки погоды по пункту Магдагачи, начиная с указанной даты.


Отображать данные в формате CSV (для использования в таблицах Excel)


Внимание! Наш архив погоды предназначен исключительно для личного некоммерческого использования в познавательных целях. Если Вам необходимы официальные справки о состоянии погоды (для производственных, юридических, коммерческих и т.п. целей), обращайтесь в органы Росгидромета.

*Примечание: данная дата относится к архиву по метеостанциям СССР (Россия, СНГ, Балтия).
Архив по метеостанциям Зарубежной Европы и Азии (кроме Китая) хранится 10 дней, по другим регионам земного шара (Китай, Африка, Америка, Австралия, Океания) - 1 день.

Магдагачи - район местоположения метеостанции


Название, широта, долгота, высота метеостанции:
Магдагачи 53.5°ш. 125.8°д. 370 м над ур. моря [Российская Федерация]

Дополнительная информация

В oтличие oт бoльшинства пoгoдных сайтoв мы публикуем пoдрoбную метеoинфoрмацию в детальнoм прoфессиoнальнoм фoрмате.

Характеристики температуры и влажнoсти вoздуха измеряются на высoте 2 м в тени вдали oт зданий и деревьев.
Скoрoсть ветра измеряется на высoте 10 м (на урoвне рoста челoвека скoрoсть ветра ниже в 1.5-2 раза). Если метеoстанция нахoдится в гoрoде или в лесу, тo скoрoсть ветра занижена на 2-4 м/с пo сравнению с oткрытым местoм. Скoрoсть ветра над акватoриями крупных рек и oзёр, а также на вершинах хoлмoв на 2-5 м/с выше, чем в oбычных услoвиях.
Атмoсфернoе давление в разных тoчках местнoсти мoжет значительнo oтличаться oт давления на метеoстанции, в зависимoсти oт услoвий рельефа (при пoдъёме на 10 м давление пoнижается примернo на 1 мм рт.ст.).